Новая Ляля

Россия / Свердловская область     59°03′07″N   60°35′38″E
темп.,
°C
ветер,
м/с
пор.,
м/с
влажн.,
%
обл.,
%
осадки,
мм/ч
давл.,
гПа
погр.,
м
13 мая, чт
чт1323:00+15зсз266559 0.0 1026102
02:00+13з256899 0.0 102589
05:00+13з387096 0.0 1025131
08:00+19зсз365261 0.0 1025259
11:00+25ссз353737 0.0 10252003
14:00+27сз35315 0.0 10242601
17:00+27сз342954 0.0 10242669
20:00+23зсз114529 0.0 102411
14 мая, пт
пт1423:00+18зсз22595 0.0 102423
02:00+16зюз22621 0.0 102411
05:00+15юз246548 0.0 102454
08:00+22зюз37485 0.0 1023305
11:00+27з57285 0.0 10232218
14:00+28з57285 0.0 10212453
17:00+28з57285 0.0 10202592
20:00+24юз38415 0.0 1019249
15 мая, сб
сб1523:00+20юз4135442 0.0 1019368
02:00+18юз31262100 0.0 1018335
05:00+17зюз31168100 0.0 1019285
08:00+22з495746 0.0 1019563
11:00+25з4743100 0.0 10181620
14:00+26з4838100 0.0 10182677
17:00+28зсз5103026 0.0 10173101
20:00+23сз125389 0.0 101733
16 мая, вс
вс1623:00+18юз2265100 0.2 101818
02:00+16юз2285100 2.6 101830
05:00+16юз2584100 3.3 101872
08:00+20юз4116443 0.0 1017414
11:00+27зюз5930100 0.0 10171268
14:00+29зюз7112247 0.0 10162375
17:00+30зюз5112366 0.0 10143042
20:00+26зюз4113342 0.0 1014498
17 мая, пн
пн1723:00+21юз4134714 0.0 1014409
02:00+19юз411569 0.0 1013312
05:00+17юз31066100 0.0 1014212
08:00+22юз41051100 0.0 1013505
11:00+26з61135100 0.0 10122197
14:00+26з7123361 0.0 10112875
17:00+25зсз7123575 0.0 10122936
20:00+20зсз513542 0.0 10131642